Theta_e
294 293 292 291 289 287 286 286 287 286 286 287 287 286 285 284 283 282 281 280 280 280
293 292 290 289 287 286 286 287 286 286 285 285 285 285 283 282 282 281 281 281 280 280
290 289 288 286 286 285 285 285 285 285 284 284 284 283 282 281 281 281 281 281 280 279
287 287 286 286 285 285 285 285 285 284 284 283 283 282 281 281 281 280 280 280 279 278
286 286 285 285 284 285 284 284 284 284 283 282 281 281 281 280 280 279 279 279 278 277
285 285 285 284 284 284 283 283 283 282 282 282 281 281 281 280 280 279 278 277 276 276
284 285 285 284 284 283 283 282 282 281 281 281 281 281 280 280 279 278 278 278 277 277
284 284 284 283 283 282 282 282 281 281 280 280 280 281 280 280 278 277 276 276 278 277
284 283 282 282 282 281 281 280 280 280 279 279 281 284 284 280 278 277 276 275 276 276
283 282 282 282 281 280 280 279 279 279 279 279 279 285 286 283 278 277 276 275 275 275
282 282 281 280 280 280 279 278 278 278 278 278 279 285 286 284 277 276 276 275 275 275
282 281 280 280 280 279 279 278 278 279 278 278 278 285 286 284 277 277 275 276 275 274
283 282 281 281 279 277 277 278 278 279 278 277 278 284 286 283 276 275 274 275 275 277
281 282 281 278 277 277 276 277 276 276 275 276 277 279 286 285 276 275 273 273 273 274
Wind_Speed
7 5 4 5 4 4 3 4 3 4 5 5 5 5 5 4 4 5 5 7 5 3
6 7 6 6 5 4 4 3 5 5 5 5 5 5 5 4 4 5 4 5 5 3
6 6 6 6 6 6 5 5 5 5 5 5 5 5 5 4 4 5 3 3 5 4
6 6 5 5 5 5 5 5 5 5 5 5 5 4 5 5 4 5 5 4 5 5
6 6 6 5 5 5 6 5 6 5 5 4 4 4 5 4 4 5 5 4 5 4
6 6 6 6 6 6 6 5 5 5 5 5 5 5 4 5 4 5 5 4 4 3
8 7 6 7 7 6 5 6 5 5 5 5 5 4 5 5 5 5 4 4 4 3
6 6 6 5 5 5 5 5 5 5 5 4 4 4 5 5 5 5 5 4 4 4
8 7 7 6 6 6 6 6 6 5 5 5 3 9 10 7 5 4 5 4 3 3
7 7 7 7 7 7 7 5 6 5 5 6 5 11 12 12 5 5 5 5 6 3
8 7 7 8 9 7 5 6 5 6 6 6 5 11 13 13 6 5 5 6 6 5
9 9 9 9 8 5 6 6 6 4 6 6 6 13 14 12 6 6 6 5 6 6
9 9 10 9 8 4 3 4 5 6 6 7 7 13 14 12 4 5 4 4 5 10
7 9 8 6 5 6 5 5 5 6 4 6 7 8 17 18 6 5 5 5 4 4
Wind_Direction
136 141 141 148 146 155 149 136 120 99 86 81 78 69 63 60 61 56 55 53 47 53
144 143 148 149 140 148 131 125 117 109 102 85 78 74 72 70 69 72 60 60 56 65
143 141 142 139 150 145 133 123 125 115 104 94 88 92 94 87 72 76 57 56 58 46
151 144 136 142 146 143 130 139 132 124 123 129 126 109 96 89 88 83 74 60 70 62
143 143 147 142 145 150 150 145 140 145 135 128 122 129 131 122 102 103 90 71 67 53
158 161 165 157 157 161 149 145 144 141 151 163 159 141 126 120 120 104 96 97 90 73
177 177 169 169 168 159 164 158 160 165 169 174 159 138 139 136 124 119 122 109 104 100
176 168 163 157 169 161 166 171 167 172 179 162 154 165 161 153 150 147 132 124 114 101
171 174 175 170 171 172 175 181 184 184 173 177 186 194 177 163 158 157 154 132 107 109
173 179 178 172 173 184 185 180 196 187 180 199 202 200 189 177 161 169 168 165 150 171
180 182 172 183 189 184 177 188 188 195 198 200 205 206 195 183 167 180 182 179 165 182
180 185 186 197 191 176 177 189 190 185 198 197 207 210 203 185 179 187 191 189 175 172
184 186 194 190 179 168 177 184 183 201 195 198 200 213 207 189 166 178 182 179 179 184
182 194 190 161 161 168 173 169 194 208 202 202 196 211 211 201 183 184 178 181 187 193